DMSP 5D-2 F13 DEB, 42297

Orbit data source: Space-Track

DMSP 5D-2 F13 DEB, 42297 is space debris in SSO originally from a launch on Fri, 24 Mar 1995 UTC launched from the Air Force Western Test Range (AFWTR). Debris objects in space refer to the collection of defunct objects orbiting the Earth. Examples of debris include non-operational satellites, rocket bodies, and fragments generated from explosions, collisions, or faulty payload assembly.

Loading next visibility...
Identifier
42297, 1995-015HP
Orbit
SSO
Country
Flag of USUS
Related business
Manufacturer
Unknown
Mission
Spacecraft
Bus & Motor
Unknown
Mass
Unknown
Launch date (UTC)
1995-03-24 (31 years ago)
Launch vehicle
Unknown
Launch site
Air Force Western Test Range (AFWTR)
Object type
Payload
Rocket body
Debris
Shape & HBR
Unknown shape, 0.1 m
Radar Cross Section
Small (<0.1 m²)

Expand to show TLE details & history
Last TLE update: 2 days ago

TLE from 2 days ago
0 DMSP 5D-2 F13 DEB
1 42297U 95015HP  25285.24472996  .00016287  00000-0  51290-2 0  9992
2 42297  98.8551 277.2335 0030107 325.2735  34.6487 14.40169305520078
Epoch: 2025-10-12T05:52Z
TLE epoch observation values (Epoch: 2025-10-12T05:52:24.668Z)
Latitude
0.00004°
Longitude
168.06607°
Altitude
743.219 km
Speed
7.492 km/s
True Right ascension
18h 28m 56s
True Declination
0° 00' 00"
Sunlit
Object was in daylight at epoch
Visualization orbit readout
Latitude
Unknown
Longitude
Unknown
Altitude
Unknown
Speed
Unknown
Apparent Right ascension
Unknown
Apparent Declination
Unknown
Sunlit
N/A
Visualization observer readout
Local Sidereal Time
05:45:08
Azimuth
Unknown
Elevation
Unknown
Doppler factor
Unknown
Orbital elements
Apogee altitude
776.554 km
Perigee altitude
733.602 km
Semi-major axis
7,133.215 km
Eccentricity
0.00301
Inclination
98.8551°
RAAN
277.2335°
Arg. of periapsis
325.2735°
True anomaly
34.84546°
Mean anomaly
34.6487°
Eccentric anomaly
34.74702°
Mean motion
3.60259 °/min
Orbital period
99.93 mins
BSTAR
0.005129

Documentation

Showing up to 5 results
|